| time (UTC) | temp F | wind direction | speed knots | gust knots | rain 1hr in | rain 24hr in | rain mn in | humidity % | barometer mb |
| 20260510153458 | 55 | 95 | 0.9 | 0.9 | 0.00 | 0.00 | 0.00 | 81 | 1017.9 |
| 20260510152955 | 55 | 63 | 0.9 | 0.9 | 0.00 | 0.00 | 0.00 | 82 | 1017.4 |
| 20260510152452 | 55 | 10 | 0.9 | 0.9 | 0.00 | 0.00 | 0.00 | 82 | 1017.6 |
| 20260510151949 | 55 | 78 | 1.7 | 2.6 | 0.00 | 0.00 | 0.00 | 82 | 1017.1 |
| 20260510151446 | 55 | 10 | 0.0 | 0.9 | 0.00 | 0.00 | 0.00 | 83 | 1017.6 |
| 20260510150942 | 55 | 79 | 0.9 | 0.9 | 0.00 | 0.00 | 0.00 | 82 | 1017.4 |
| 20260510150438 | 55 | 347 | 0.0 | 0.0 | 0.00 | 0.00 | 0.00 | 83 | 1017.6 |
| 20260510145934 | 55 | 148 | 0.0 | 0.0 | 0.00 | 0.00 | 0.00 | 84 | 1018.0 |
| 20260510145431 | 54 | 150 | 0.0 | 0.9 | 0.00 | 0.00 | 0.00 | 84 | 1018.1 |
| 20260510144927 | 54 | 150 | 0.0 | 0.9 | 0.00 | 0.00 | 0.00 | 86 | 1018.0 |
| 20260510144424 | 54 | 115 | 0.9 | 0.9 | 0.00 | 0.00 | 0.00 | 86 | 1017.6 |
| 20260510143919 | 54 | 49 | 1.7 | 1.7 | 0.00 | 0.00 | 0.00 | 86 | 1017.8 |
| 20260510143415 | 53 | 359 | 0.0 | 0.0 | 0.00 | 0.00 | 0.00 | 87 | 1017.8 |
| 20260510142912 | 53 | 109 | 0.9 | 1.7 | 0.00 | 0.00 | 0.00 | 87 | 1017.8 |
| 20260510142409 | 53 | 78 | 0.0 | 0.9 | 0.00 | 0.00 | 0.00 | 87 | 1017.7 |
| 20260510141906 | 53 | 353 | 0.9 | 0.9 | 0.00 | 0.00 | 0.00 | 87 | 1017.8 |
| 20260510141403 | 53 | 70 | 0.9 | 2.6 | 0.00 | 0.00 | 0.00 | 88 | 1017.6 |
| 20260510140859 | 53 | 248 | 0.0 | 0.0 | 0.00 | 0.00 | 0.00 | 88 | 1017.7 |
| 20260510140355 | 53 | 181 | 0.0 | 0.9 | 0.00 | 0.00 | 0.00 | 88 | 1017.7 |
| 20260510135849 | 53 | 136 | 1.7 | 1.7 | 0.00 | 0.00 | 0.00 | 89 | 1017.3 |
| 20260510135345 | 53 | 49 | 2.6 | 2.6 | 0.00 | 0.00 | 0.00 | 89 | 1016.3 |
| 20260510134843 | 53 | 93 | 2.6 | 4.3 | 0.00 | 0.00 | 0.00 | 90 | 1016.8 |
| 20260510134339 | 53 | 123 | 2.6 | 2.6 | 0.00 | 0.00 | 0.00 | 90 | 1017.4 |
| 20260510133835 | 53 | 110 | 0.9 | 0.9 | 0.00 | 0.00 | 0.00 | 90 | 1017.2 |
| 20260510133332 | 52 | 101 | 2.6 | 2.6 | 0.00 | 0.00 | 0.00 | 90 | 1017.0 |
| 20260510132828 | 52 | 84 | 1.7 | 1.7 | 0.00 | 0.00 | 0.00 | 90 | 1017.2 |
| 20260510132326 | 52 | 76 | 0.9 | 0.9 | 0.00 | 0.00 | 0.00 | 90 | 1017.2 |
| 20260510131822 | 52 | 95 | 1.7 | 1.7 | 0.00 | 0.00 | 0.00 | 90 | 1017.5 |
| 20260510131320 | 52 | 113 | 0.9 | 1.7 | 0.00 | 0.00 | 0.00 | 90 | 1017.5 |
| 20260510130816 | 52 | 108 | 0.9 | 0.9 | 0.00 | 0.00 | 0.00 | 90 | 1017.5 |
| 20260510130314 | 52 | 109 | 0.0 | 0.9 | 0.00 | 0.00 | 0.00 | 90 | 1017.6 |
| 20260510125810 | 52 | 113 | 0.9 | 1.7 | 0.00 | 0.00 | 0.00 | 90 | 1017.5 |
| 20260510125307 | 52 | 92 | 1.7 | 1.7 | 0.00 | 0.00 | 0.00 | 90 | 1017.5 |
| 20260510124803 | 52 | 21 | 0.0 | 0.0 | 0.00 | 0.00 | 0.00 | 90 | 1017.4 |
| 20260510124300 | 52 | 20 | 0.9 | 0.9 | 0.00 | 0.00 | 0.00 | 90 | 1017.4 |
| 20260510123755 | 52 | 53 | 1.7 | 1.7 | 0.00 | 0.00 | 0.00 | 90 | 1017.2 |
| 20260510123251 | 52 | 68 | 3.5 | 4.3 | 0.00 | 0.00 | 0.00 | 90 | 1017.6 |
| 20260510122748 | 51 | 65 | 0.9 | 1.7 | 0.00 | 0.00 | 0.00 | 90 | 1017.4 |
| 20260510122244 | 51 | 43 | 0.0 | 0.9 | 0.00 | 0.00 | 0.00 | 90 | 1017.5 |
| 20260510121740 | 51 | 18 | 1.7 | 2.6 | 0.00 | 0.00 | 0.00 | 90 | 1017.4 |
| 20260510121238 | 51 | 19 | 0.9 | 0.9 | 0.00 | 0.00 | 0.00 | 90 | 1017.2 |
| 20260510120730 | 52 | 19 | 0.0 | 0.0 | 0.00 | 0.00 | 0.00 | 90 | 1017.5 |
| 20260510120226 | 52 | 19 | 0.0 | 0.0 | 0.00 | 0.00 | 0.00 | 90 | 1017.5 |
| 20260510115721 | 52 | 18 | 0.0 | 0.9 | 0.00 | 0.00 | 0.00 | 90 | 1017.3 |
| 20260510115220 | 52 | 26 | 0.0 | 0.0 | 0.00 | 0.00 | 0.00 | 89 | 1017.0 |
| 20260510114715 | 52 | 64 | 1.7 | 1.7 | 0.00 | 0.00 | 0.00 | 89 | 1017.1 |
| 20260510114212 | 52 | 59 | 1.7 | 1.7 | 0.00 | 0.00 | 0.00 | 89 | 1017.2 |
| 20260510113707 | 52 | 42 | 0.9 | 0.9 | 0.00 | 0.00 | 0.00 | 89 | 1017.2 |
| 20260510113204 | 52 | 1 | 0.0 | 0.9 | 0.00 | 0.00 | 0.00 | 89 | 1017.3 |
| 20260510112700 | 52 | 15 | 0.9 | 0.9 | 0.00 | 0.00 | 0.00 | 89 | 1017.2 |
| 20260510112158 | 52 | 355 | 0.0 | 0.0 | 0.00 | 0.00 | 0.00 | 89 | 1017.5 |
| 20260510111648 | 51 | 9 | 0.9 | 0.9 | 0.00 | 0.00 | 0.00 | 89 | 1017.1 |
| 20260510111145 | 52 | 329 | 0.0 | 0.0 | 0.00 | 0.00 | 0.00 | 89 | 1016.9 |
| 20260510110639 | 51 | 325 | 0.0 | 0.0 | 0.00 | 0.00 | 0.00 | 89 | 1017.2 |
| 20260510110137 | 51 | 349 | 0.0 | 0.0 | 0.00 | 0.00 | 0.00 | 89 | 1017.2 |
| 20260510105633 | 51 | 317 | 0.0 | 0.0 | 0.00 | 0.00 | 0.00 | 89 | 1017.0 |
| 20260510105132 | 51 | 297 | 0.0 | 0.0 | 0.00 | 0.00 | 0.00 | 90 | 1017.0 |
| 20260510104630 | 51 | 313 | 0.0 | 0.0 | 0.00 | 0.00 | 0.00 | 90 | 1017.0 |
| 20260510104126 | 51 | 323 | 0.0 | 0.0 | 0.00 | 0.00 | 0.00 | 90 | 1016.8 |
| 20260510103623 | 51 | 309 | 0.0 | 0.0 | 0.00 | 0.00 | 0.00 | 90 | 1016.9 |
| 20260510103119 | 51 | 309 | 0.0 | 0.0 | 0.00 | 0.00 | 0.00 | 90 | 1016.9 |
| 20260510102614 | 51 | 301 | 0.0 | 0.0 | 0.00 | 0.00 | 0.00 | 89 | 1016.7 |
| 20260510102110 | 52 | 303 | 0.0 | 0.0 | 0.00 | 0.00 | 0.00 | 89 | 1016.7 |
| 20260510101609 | 52 | 297 | 0.0 | 0.9 | 0.00 | 0.00 | 0.00 | 89 | 1016.6 |
| 20260510101107 | 52 | 299 | 0.9 | 1.7 | 0.00 | 0.00 | 0.00 | 89 | 1016.7 |
| 20260510100602 | 52 | 280 | 0.9 | 0.9 | 0.00 | 0.00 | 0.00 | 89 | 1016.5 |
| 20260510100100 | 52 | 287 | 0.0 | 0.0 | 0.00 | 0.00 | 0.00 | 88 | 1016.5 |
| 20260510095556 | 52 | 299 | 0.0 | 0.0 | 0.00 | 0.00 | 0.00 | 87 | 1016.3 |
| 20260510095055 | 52 | 303 | 0.0 | 0.0 | 0.00 | 0.00 | 0.00 | 87 | 1016.3 |
| 20260510094550 | 53 | 305 | 0.0 | 0.0 | 0.00 | 0.00 | 0.00 | 87 | 1016.4 |
| 20260510094045 | 53 | 305 | 0.0 | 0.9 | 0.00 | 0.00 | 0.00 | 87 | 1016.3 |
| 20260510093542 | 53 | 313 | 0.9 | 0.9 | 0.00 | 0.00 | 0.00 | 87 | 1016.4 |
| 20260510093039 | 53 | 317 | 0.9 | 1.7 | 0.00 | 0.00 | 0.00 | 87 | 1016.3 |
| 20260510092536 | 53 | 301 | 1.7 | 2.6 | 0.00 | 0.00 | 0.00 | 87 | 1016.4 |
| 20260510092035 | 53 | 317 | 0.9 | 0.9 | 0.00 | 0.00 | 0.00 | 87 | 1016.2 |
| 20260510091532 | 53 | 311 | 1.7 | 1.7 | 0.00 | 0.00 | 0.00 | 86 | 1016.3 |
| 20260510091028 | 53 | 305 | 0.9 | 0.9 | 0.00 | 0.00 | 0.00 | 86 | 1016.3 |
| 20260510090520 | 53 | 311 | 0.0 | 0.9 | 0.00 | 0.00 | 0.00 | 86 | 1016.2 |
| 20260510090016 | 53 | 304 | 0.0 | 0.9 | 0.00 | 0.00 | 0.00 | 85 | 1016.0 |
| 20260510085516 | 54 | 308 | 0.9 | 1.7 | 0.00 | 0.00 | 0.00 | 85 | 1016.1 |
| 20260510085012 | 54 | 318 | 0.9 | 1.7 | 0.00 | 0.00 | 0.00 | 85 | 1016.2 |
| 20260510084509 | 54 | 317 | 1.7 | 1.7 | 0.00 | 0.00 | 0.00 | 84 | 1016.1 |
| 20260510084005 | 54 | 313 | 0.9 | 1.7 | 0.00 | 0.00 | 0.00 | 84 | 1016.2 |
| 20260510083502 | 54 | 335 | 1.7 | 2.6 | 0.00 | 0.00 | 0.00 | 84 | 1016.2 |
| 20260510082957 | 54 | 329 | 0.9 | 0.9 | 0.00 | 0.00 | 0.00 | 85 | 1015.8 |
| 20260510082455 | 54 | 312 | 1.7 | 1.7 | 0.00 | 0.00 | 0.00 | 85 | 1016.0 |
| 20260510081955 | 54 | 308 | 1.7 | 1.7 | 0.00 | 0.00 | 0.00 | 85 | 1015.9 |
| 20260510081451 | 54 | 293 | 0.0 | 0.9 | 0.00 | 0.00 | 0.00 | 85 | 1016.1 |
| 20260510080947 | 55 | 314 | 1.7 | 1.7 | 0.00 | 0.00 | 0.00 | 84 | 1016.0 |
| 20260510080445 | 55 | 305 | 0.9 | 0.9 | 0.00 | 0.00 | 0.00 | 83 | 1016.3 |
| 20260510075942 | 55 | 308 | 1.7 | 1.7 | 0.00 | 0.00 | 0.00 | 83 | 1016.0 |
| 20260510075440 | 55 | 298 | 0.0 | 0.9 | 0.00 | 0.00 | 0.00 | 82 | 1016.0 |
| 20260510074937 | 55 | 300 | 0.0 | 0.0 | 0.00 | 0.00 | 0.00 | 82 | 1016.0 |
| 20260510074434 | 55 | 300 | 0.0 | 0.0 | 0.00 | 0.00 | 0.00 | 81 | 1015.9 |
| 20260510073930 | 55 | 312 | 0.0 | 0.0 | 0.00 | 0.00 | 0.00 | 79 | 1016.0 |
| 20260510073426 | 56 | 306 | 0.0 | 0.0 | 0.00 | 0.00 | 0.00 | 78 | 1015.9 |
| 20260510072923 | 56 | 308 | 0.0 | 0.0 | 0.00 | 0.00 | 0.00 | 77 | 1016.0 |
| 20260510072420 | 56 | 326 | 1.7 | 1.7 | 0.00 | 0.00 | 0.00 | 77 | 1016.2 |
| 20260510071915 | 56 | 304 | 0.0 | 0.0 | 0.00 | 0.00 | 0.00 | 79 | 1015.9 |
| 20260510071412 | 56 | 296 | 0.0 | 0.0 | 0.00 | 0.00 | 0.00 | 79 | 1016.0 |
| 20260510070910 | 56 | 290 | 0.0 | 0.0 | 0.00 | 0.00 | 0.00 | 80 | 1016.1 |
| 20260510070407 | 56 | 286 | 0.0 | 0.0 | 0.00 | 0.00 | 0.00 | 80 | 1016.2 |
| 20260510065902 | 56 | 278 | 0.0 | 0.0 | 0.00 | 0.00 | 0.00 | 80 | 1016.0 |
| 20260510065359 | 56 | 288 | 0.0 | 0.0 | 0.00 | 0.00 | 0.00 | 78 | 1015.9 |
| 20260510064855 | 57 | 280 | 1.7 | 1.7 | 0.00 | 0.00 | 0.00 | 78 | 1015.8 |
| 20260510064354 | 57 | 291 | 0.9 | 0.9 | 0.00 | 0.00 | 0.00 | 77 | 1015.9 |
| 20260510063849 | 57 | 347 | 0.9 | 1.7 | 0.00 | 0.00 | 0.00 | 76 | 1015.8 |
| 20260510063346 | 57 | 325 | 1.7 | 1.7 | 0.00 | 0.00 | 0.00 | 75 | 1015.9 |
| 20260510062843 | 57 | 292 | 0.0 | 0.0 | 0.00 | 0.00 | 0.00 | 75 | 1016.0 |
| 20260510062338 | 57 | 293 | 1.7 | 2.6 | 0.00 | 0.00 | 0.00 | 75 | 1016.1 |
| 20260510061834 | 57 | 292 | 0.9 | 0.9 | 0.00 | 0.00 | 0.00 | 75 | 1016.1 |
| 20260510061331 | 57 | 275 | 0.9 | 1.7 | 0.00 | 0.00 | 0.00 | 76 | 1016.0 |
| 20260510060827 | 57 | 299 | 0.0 | 0.9 | 0.00 | 0.00 | 0.00 | 77 | 1016.0 |
| 20260510060324 | 57 | 308 | 0.0 | 0.9 | 0.00 | 0.00 | 0.00 | 77 | 1016.1 |
| 20260510055821 | 57 | 298 | 0.0 | 0.0 | 0.00 | 0.00 | 0.00 | 78 | 1016.1 |
| 20260510055320 | 57 | 289 | 0.0 | 0.0 | 0.00 | 0.00 | 0.00 | 79 | 1016.3 |
| 20260510054819 | 57 | 302 | 0.0 | 0.0 | 0.00 | 0.00 | 0.00 | 78 | 1016.0 |
| 20260510054315 | 57 | 297 | 0.0 | 0.0 | 0.00 | 0.00 | 0.00 | 78 | 1015.9 |
| 20260510053810 | 57 | 287 | 0.9 | 0.9 | 0.00 | 0.00 | 0.00 | 79 | 1016.0 |
| 20260510053305 | 58 | 289 | 0.0 | 0.0 | 0.00 | 0.00 | 0.00 | 78 | 1016.0 |
| 20260510052802 | 58 | 292 | 0.0 | 0.0 | 0.00 | 0.00 | 0.00 | 77 | 1016.0 |
| 20260510052258 | 58 | 277 | 1.7 | 1.7 | 0.00 | 0.00 | 0.00 | 76 | 1016.0 |
| 20260510051754 | 59 | 293 | 0.9 | 0.9 | 0.00 | 0.00 | 0.00 | 77 | 1015.8 |
| 20260510051251 | 58 | 287 | 0.9 | 0.9 | 0.00 | 0.00 | 0.00 | 76 | 1016.2 |
| 20260510050747 | 58 | 313 | 0.0 | 0.0 | 0.00 | 0.00 | 0.00 | 76 | 1016.0 |
| 20260510050239 | 58 | 305 | 0.0 | 0.0 | 0.00 | 0.00 | 0.00 | 77 | 1016.0 |
| 20260510045736 | 58 | 302 | 0.0 | 0.0 | 0.00 | 0.00 | 0.00 | 77 | 1016.0 |
| 20260510045232 | 58 | 309 | 0.0 | 0.9 | 0.00 | 0.00 | 0.00 | 78 | 1016.1 |
| 20260510044729 | 58 | 306 | 0.9 | 1.7 | 0.00 | 0.00 | 0.00 | 78 | 1016.0 |
| 20260510044227 | 59 | 299 | 0.0 | 0.0 | 0.00 | 0.00 | 0.00 | 78 | 1015.8 |
| 20260510043722 | 59 | 295 | 0.0 | 0.0 | 0.00 | 0.00 | 0.00 | 78 | 1015.8 |
| 20260510043219 | 59 | 286 | 0.0 | 0.0 | 0.00 | 0.00 | 0.00 | 78 | 1016.0 |
| 20260510042716 | 59 | 294 | 0.0 | 0.0 | 0.00 | 0.00 | 0.00 | 77 | 1015.9 |
| 20260510042212 | 59 | 307 | 0.0 | 0.0 | 0.00 | 0.00 | 0.00 | 77 | 1015.7 |
| 20260510041709 | 59 | 300 | 1.7 | 1.7 | 0.00 | 0.00 | 0.00 | 77 | 1015.8 |
| 20260510041207 | 59 | 278 | 1.7 | 1.7 | 0.00 | 0.00 | 0.00 | 76 | 1015.8 |
| 20260510040703 | 60 | 288 | 0.0 | 0.9 | 0.00 | 0.00 | 0.00 | 76 | 1015.8 |
| 20260510040200 | 60 | 298 | 1.7 | 2.6 | 0.00 | 0.00 | 0.00 | 76 | 1015.6 |
| 20260510035656 | 60 | 311 | 0.0 | 0.0 | 0.00 | 0.00 | 0.00 | 75 | 1015.7 |
| 20260510035151 | 60 | 291 | 0.9 | 0.9 | 0.00 | 0.00 | 0.00 | 74 | 1016.0 |
| 20260510034648 | 61 | 291 | 1.7 | 1.7 | 0.00 | 0.00 | 0.00 | 74 | 1015.9 |
| 20260510034145 | 61 | 302 | 1.7 | 1.7 | 0.00 | 0.00 | 0.00 | 74 | 1015.7 |
| 20260510033641 | 61 | 298 | 0.0 | 0.9 | 0.00 | 0.00 | 0.00 | 73 | 1015.7 |
| 20260510033139 | 61 | 297 | 0.0 | 0.0 | 0.00 | 0.00 | 0.00 | 73 | 1015.8 |
| 20260510032635 | 61 | 299 | 0.9 | 0.9 | 0.00 | 0.00 | 0.00 | 73 | 1015.7 |
| 20260510032131 | 61 | 299 | 0.0 | 0.0 | 0.00 | 0.00 | 0.00 | 72 | 1015.7 |
| 20260510031626 | 61 | 302 | 0.0 | 0.0 | 0.00 | 0.00 | 0.00 | 72 | 1015.8 |
| 20260510031123 | 62 | 304 | 0.0 | 0.0 | 0.00 | 0.00 | 0.00 | 71 | 1015.9 |
| 20260510030617 | 62 | 308 | 0.9 | 1.7 | 0.00 | 0.00 | 0.00 | 71 | 1015.9 |
| 20260510030115 | 62 | 272 | 0.9 | 1.7 | 0.00 | 0.00 | 0.00 | 71 | 1016.0 |
| 20260510025612 | 62 | 307 | 0.0 | 0.0 | 0.00 | 0.00 | 0.00 | 70 | 1015.8 |
| 20260510025110 | 62 | 312 | 0.0 | 0.0 | 0.00 | 0.00 | 0.00 | 70 | 1015.8 |
| 20260510024606 | 63 | 336 | 0.0 | 1.7 | 0.00 | 0.00 | 0.00 | 69 | 1015.9 |
| 20260510024103 | 63 | 301 | 0.0 | 0.0 | 0.00 | 0.00 | 0.00 | 69 | 1016.0 |
| 20260510023559 | 63 | 301 | 0.0 | 0.0 | 0.00 | 0.00 | 0.00 | 68 | 1016.1 |
| 20260510023057 | 63 | 296 | 0.9 | 0.9 | 0.00 | 0.00 | 0.00 | 68 | 1016.1 |
| 20260510022556 | 63 | 280 | 0.0 | 0.0 | 0.00 | 0.00 | 0.00 | 67 | 1016.2 |
| 20260510022055 | 64 | 307 | 0.0 | 0.0 | 0.00 | 0.00 | 0.00 | 67 | 1016.2 |
| 20260510021547 | 64 | 299 | 3.5 | 4.3 | 0.00 | 0.00 | 0.00 | 66 | 1016.2 |
| 20260510021044 | 64 | 353 | 2.6 | 4.3 | 0.00 | 0.00 | 0.00 | 66 | 1016.2 |
| 20260510020538 | 64 | 345 | 2.6 | 2.6 | 0.00 | 0.00 | 0.00 | 65 | 1016.5 |
| 20260510020034 | 65 | 338 | 0.9 | 0.9 | 0.00 | 0.00 | 0.00 | 64 | 1016.5 |
| 20260510015530 | 65 | 321 | 2.6 | 2.6 | 0.00 | 0.00 | 0.00 | 64 | 1016.3 |
| 20260510015026 | 65 | 308 | 0.9 | 1.7 | 0.00 | 0.00 | 0.00 | 64 | 1016.3 |
| 20260510014523 | 64 | 320 | 0.9 | 0.9 | 0.00 | 0.00 | 0.00 | 65 | 1016.5 |
| 20260510014020 | 64 | 317 | 1.7 | 2.6 | 0.00 | 0.00 | 0.00 | 65 | 1016.8 |
| 20260510013515 | 64 | 311 | 0.0 | 0.9 | 0.00 | 0.00 | 0.00 | 65 | 1017.0 |
| 20260510013011 | 64 | 21 | 5.2 | 6.1 | 0.00 | 0.00 | 0.00 | 66 | 1016.8 |
| 20260510012505 | 65 | 350 | 7.0 | 8.7 | 0.00 | 0.00 | 0.00 | 64 | 1017.2 |
| 20260510012001 | 65 | 333 | 3.5 | 4.3 | 0.00 | 0.00 | 0.00 | 64 | 1016.9 |
| 20260510011455 | 64 | 327 | 4.3 | 4.3 | 0.00 | 0.00 | 0.00 | 65 | 1016.9 |
| 20260510010951 | 64 | 332 | 4.3 | 7.0 | 0.00 | 0.00 | 0.00 | 66 | 1017.1 |
| 20260510010449 | 64 | 333 | 2.6 | 4.3 | 0.00 | 0.00 | 0.00 | 67 | 1017.0 |
| 20260510005946 | 64 | 330 | 1.7 | 1.7 | 0.00 | 0.00 | 0.00 | 66 | 1017.0 |
| 20260510005442 | 64 | 322 | 3.5 | 5.2 | 0.00 | 0.00 | 0.00 | 66 | 1017.1 |
| 20260510004939 | 65 | 316 | 0.9 | 1.7 | 0.00 | 0.00 | 0.00 | 65 | 1017.0 |
| 20260510004436 | 65 | 340 | 3.5 | 5.2 | 0.00 | 0.00 | 0.00 | 66 | 1017.2 |
| 20260510003934 | 65 | 337 | 5.2 | 6.1 | 0.00 | 0.00 | 0.00 | 65 | 1017.3 |
| 20260510003431 | 65 | 293 | 1.7 | 1.7 | 0.00 | 0.00 | 0.00 | 65 | 1017.3 |
| 20260510002930 | 65 | 315 | 3.5 | 4.3 | 0.00 | 0.00 | 0.00 | 64 | 1017.1 |
| 20260510002427 | 66 | 347 | 4.3 | 6.1 | 0.00 | 0.00 | 0.00 | 64 | 1017.5 |
| 20260510001924 | 66 | 324 | 3.5 | 4.3 | 0.00 | 0.00 | 0.00 | 63 | 1017.4 |
| 20260510001421 | 66 | 347 | 2.6 | 4.3 | 0.00 | 0.00 | 0.00 | 63 | 1017.5 |
| 20260510000919 | 67 | 345 | 3.5 | 4.3 | 0.00 | 0.00 | 0.00 | 60 | 1017.6 |
| 20260510000415 | 66 | 348 | 0.9 | 1.7 | 0.00 | 0.00 | 0.00 | 61 | 1017.6 |
| 20260509235911 | 66 | 335 | 1.7 | 1.7 | 0.00 | 0.00 | 0.00 | 61 | 1017.6 |
| 20260509235408 | 66 | 338 | 3.5 | 4.3 | 0.00 | 0.00 | 0.00 | 60 | 1017.9 |
| 20260509234904 | 67 | 302 | 2.6 | 4.3 | 0.00 | 0.00 | 0.00 | 58 | 1017.8 |
| 20260509234402 | 68 | 314 | 3.5 | 4.3 | 0.00 | 0.00 | 0.00 | 54 | 1017.8 |
| 20260509233859 | 67 | 308 | 1.7 | 2.6 | 0.00 | 0.00 | 0.00 | 54 | 1018.0 |
| 20260509233357 | 68 | 311 | 2.6 | 2.6 | 0.00 | 0.00 | 0.00 | 52 | 1017.7 |
| 20260509232852 | 68 | 348 | 2.6 | 4.3 | 0.00 | 0.00 | 0.00 | 52 | 1018.0 |
| 20260509232351 | 68 | 293 | 4.3 | 6.1 | 0.00 | 0.00 | 0.00 | 51 | 1017.8 |
| 20260509231846 | 68 | 314 | 4.3 | 5.2 | 0.00 | 0.00 | 0.00 | 51 | 1018.1 |
| 20260509231343 | 68 | 41 | 1.7 | 1.7 | 0.00 | 0.00 | 0.00 | 50 | 1018.1 |
| 20260509230841 | 67 | 4 | 3.5 | 4.3 | 0.00 | 0.00 | 0.00 | 52 | 1017.9 |
| 20260509230332 | 67 | 347 | 2.6 | 2.6 | 0.00 | 0.00 | 0.00 | 52 | 1018.1 |
| 20260509225827 | 68 | 318 | 3.5 | 4.3 | 0.00 | 0.00 | 0.00 | 52 | 1018.0 |
| 20260509225325 | 68 | 321 | 4.3 | 6.1 | 0.00 | 0.00 | 0.00 | 50 | 1018.5 |
| 20260509224821 | 67 | 355 | 0.9 | 1.7 | 0.00 | 0.00 | 0.00 | 53 | 1018.5 |
| 20260509224317 | 68 | 299 | 1.7 | 2.6 | 0.00 | 0.00 | 0.00 | 52 | 1018.7 |
| 20260509223814 | 67 | 278 | 1.7 | 1.7 | 0.00 | 0.00 | 0.00 | 53 | 1018.6 |
| 20260509223310 | 66 | 294 | 1.7 | 1.7 | 0.00 | 0.00 | 0.00 | 56 | 1018.8 |
| 20260509222807 | 67 | 266 | 3.5 | 4.3 | 0.00 | 0.00 | 0.00 | 53 | 1018.7 |
| 20260509222306 | 67 | 309 | 2.6 | 2.6 | 0.00 | 0.00 | 0.00 | 53 | 1018.8 |
| 20260509221758 | 67 | 323 | 6.1 | 6.1 | 0.00 | 0.00 | 0.00 | 54 | 1018.8 |
| 20260509221256 | 67 | 8 | 5.2 | 7.8 | 0.00 | 0.00 | 0.00 | 53 | 1018.9 |
| 20260509220751 | 68 | 5 | 4.3 | 6.1 | 0.00 | 0.00 | 0.00 | 54 | 1018.7 |
| 20260509220248 | 68 | 342 | 3.5 | 5.2 | 0.00 | 0.00 | 0.00 | 54 | 1018.9 |
| 20260509215743 | 66 | 355 | 5.2 | 6.1 | 0.00 | 0.00 | 0.00 | 55 | 1018.9 |
| 20260509215240 | 67 | 309 | 0.9 | 1.7 | 0.00 | 0.00 | 0.00 | 53 | 1019.0 |
| 20260509214737 | 68 | 317 | 2.6 | 2.6 | 0.00 | 0.00 | 0.00 | 53 | 1018.9 |
| 20260509214234 | 68 | 337 | 1.7 | 4.3 | 0.00 | 0.00 | 0.00 | 53 | 1018.9 |
| 20260509213731 | 67 | 341 | 2.6 | 5.2 | 0.00 | 0.00 | 0.00 | 53 | 1019.0 |
| 20260509213226 | 66 | 323 | 3.5 | 6.1 | 0.00 | 0.00 | 0.00 | 54 | 1018.8 |
| 20260509212724 | 66 | 320 | 2.6 | 5.2 | 0.00 | 0.00 | 0.00 | 53 | 1018.9 |
| 20260509212221 | 66 | 338 | 3.5 | 5.2 | 0.00 | 0.00 | 0.00 | 51 | 1019.2 |
| 20260509211717 | 67 | 19 | 0.9 | 1.7 | 0.00 | 0.00 | 0.00 | 53 | 1019.4 |
| 20260509211214 | 68 | 332 | 4.3 | 7.8 | 0.00 | 0.00 | 0.00 | 52 | 1019.3 |
| 20260509210710 | 69 | 282 | 2.6 | 2.6 | 0.00 | 0.00 | 0.00 | 52 | 1019.3 |
| 20260509210208 | 67 | 310 | 2.6 | 2.6 | 0.00 | 0.00 | 0.00 | 56 | 1019.3 |
| 20260509205707 | 68 | 301 | 3.5 | 5.2 | 0.00 | 0.00 | 0.00 | 55 | 1019.5 |
| 20260509205207 | 68 | 272 | 1.7 | 1.7 | 0.00 | 0.00 | 0.00 | 56 | 1019.2 |
| 20260509204703 | 67 | 314 | 1.7 | 1.7 | 0.00 | 0.00 | 0.00 | 58 | 1019.3 |
| 20260509204200 | 67 | 313 | 4.3 | 5.2 | 0.00 | 0.00 | 0.00 | 58 | 1019.3 |
| 20260509203656 | 66 | 282 | 3.5 | 4.3 | 0.00 | 0.00 | 0.00 | 60 | 1019.5 |
| 20260509203154 | 66 | 261 | 2.6 | 2.6 | 0.00 | 0.00 | 0.00 | 60 | 1019.3 |
| 20260509202650 | 66 | 4 | 4.3 | 7.0 | 0.00 | 0.00 | 0.00 | 61 | 1019.5 |
| 20260509202144 | 66 | 332 | 1.7 | 2.6 | 0.00 | 0.00 | 0.00 | 62 | 1019.5 |
| 20260509201640 | 66 | 287 | 3.5 | 5.2 | 0.00 | 0.00 | 0.00 | 61 | 1019.5 |
| 20260509201137 | 66 | 199 | 3.5 | 4.3 | 0.00 | 0.00 | 0.00 | 63 | 1019.7 |
| 20260509200633 | 66 | 244 | 5.2 | 6.1 | 0.00 | 0.00 | 0.00 | 62 | 1019.6 |
| 20260509200128 | 65 | 303 | 3.5 | 5.2 | 0.00 | 0.00 | 0.00 | 63 | 1019.8 |
| 20260509195624 | 66 | 268 | 6.1 | 8.7 | 0.00 | 0.00 | 0.00 | 62 | 1019.8 |
| 20260509195119 | 66 | 300 | 1.7 | 2.6 | 0.00 | 0.00 | 0.00 | 63 | 1019.8 |
| 20260509194619 | 67 | 299 | 3.5 | 6.1 | 0.00 | 0.00 | 0.00 | 60 | 1020.0 |
| 20260509194117 | 67 | 247 | 4.3 | 6.1 | 0.00 | 0.00 | 0.00 | 60 | 1020.1 |
| 20260509193612 | 68 | 294 | 3.5 | 5.2 | 0.00 | 0.00 | 0.00 | 59 | 1020.2 |
| 20260509193108 | 65 | 317 | 1.7 | 2.6 | 0.00 | 0.00 | 0.00 | 64 | 1020.3 |
| 20260509192605 | 64 | 246 | 0.9 | 1.7 | 0.00 | 0.00 | 0.00 | 65 | 1020.4 |
| 20260509192100 | 65 | 346 | 1.7 | 2.6 | 0.00 | 0.00 | 0.00 | 64 | 1020.4 |
| 20260509191555 | 65 | 294 | 3.5 | 4.3 | 0.00 | 0.00 | 0.00 | 65 | 1020.4 |
| 20260509191051 | 66 | 298 | 1.7 | 6.1 | 0.00 | 0.00 | 0.00 | 63 | 1020.7 |
| 20260509190548 | 66 | 281 | 3.5 | 4.3 | 0.00 | 0.00 | 0.00 | 65 | 1020.7 |
| 20260509190046 | 64 | 268 | 2.6 | 2.6 | 0.00 | 0.00 | 0.00 | 66 | 1020.7 |
| 20260509185543 | 65 | 225 | 3.5 | 4.3 | 0.00 | 0.00 | 0.00 | 65 | 1020.6 |
| 20260509185039 | 64 | 239 | 0.9 | 0.9 | 0.00 | 0.00 | 0.00 | 67 | 1020.8 |
| 20260509184538 | 65 | 308 | 2.6 | 2.6 | 0.00 | 0.00 | 0.00 | 66 | 1020.8 |
| 20260509184033 | 63 | 286 | 0.9 | 0.9 | 0.00 | 0.00 | 0.00 | 68 | 1020.9 |
| 20260509183529 | 63 | 254 | 3.5 | 5.2 | 0.00 | 0.00 | 0.00 | 68 | 1020.9 |
| 20260509183025 | 63 | 203 | 2.6 | 2.6 | 0.00 | 0.00 | 0.00 | 68 | 1020.8 |
| 20260509182521 | 63 | 253 | 2.6 | 2.6 | 0.00 | 0.00 | 0.00 | 67 | 1020.8 |
| 20260509182018 | 62 | 283 | 1.7 | 2.6 | 0.00 | 0.00 | 0.00 | 70 | 1021.1 |
| 20260509181516 | 64 | 285 | 3.5 | 5.2 | 0.00 | 0.00 | 0.00 | 69 | 1020.8 |
| 20260509181010 | 64 | 219 | 1.7 | 1.7 | 0.00 | 0.00 | 0.00 | 66 | 1020.8 |
| 20260509180503 | 62 | 282 | 0.9 | 0.9 | 0.00 | 0.00 | 0.00 | 73 | 1021.0 |
| 20260509180002 | 62 | 278 | 3.5 | 4.3 | 0.00 | 0.00 | 0.00 | 72 | 1021.1 |
| 20260509175457 | 62 | 258 | 2.6 | 4.3 | 0.00 | 0.00 | 0.00 | 71 | 1020.9 |
| 20260509174954 | 62 | 311 | 0.9 | 1.7 | 0.00 | 0.00 | 0.00 | 72 | 1021.2 |
| 20260509174450 | 61 | 318 | 0.9 | 1.7 | 0.00 | 0.00 | 0.00 | 74 | 1021.2 |
| 20260509173944 | 61 | 339 | 1.7 | 1.7 | 0.00 | 0.00 | 0.00 | 74 | 1021.3 |
| 20260509173439 | 61 | 308 | 3.5 | 4.3 | 0.00 | 0.00 | 0.00 | 73 | 1021.5 |
| 20260509172936 | 62 | 256 | 1.7 | 2.6 | 0.00 | 0.00 | 0.00 | 72 | 1021.3 |
| 20260509172433 | 62 | 346 | 2.6 | 2.6 | 0.00 | 0.00 | 0.00 | 72 | 1021.3 |
| 20260509171929 | 62 | 252 | 3.5 | 5.2 | 0.00 | 0.00 | 0.00 | 69 | 1021.2 |
| 20260509171425 | 61 | 222 | 0.9 | 0.9 | 0.00 | 0.00 | 0.00 | 69 | 1021.2 |
| 20260509170921 | 60 | 196 | 0.9 | 0.9 | 0.00 | 0.00 | 0.00 | 70 | 1021.3 |
| 20260509170417 | 60 | 129 | 3.5 | 4.3 | 0.00 | 0.00 | 0.00 | 69 | 1021.2 |
| 20260509165913 | 60 | 177 | 2.6 | 2.6 | 0.00 | 0.00 | 0.00 | 71 | 1021.2 |
| 20260509165407 | 59 | 92 | 3.5 | 5.2 | 0.00 | 0.00 | 0.00 | 72 | 1021.4 |
| 20260509164903 | 61 | 120 | 1.7 | 6.1 | 0.00 | 0.00 | 0.00 | 69 | 1021.3 |
| 20260509164359 | 59 | 85 | 0.9 | 1.7 | 0.00 | 0.00 | 0.00 | 73 | 1021.6 |
| 20260509163855 | 59 | 114 | 2.6 | 2.6 | 0.00 | 0.00 | 0.00 | 75 | 1021.3 |
| 20260509163352 | 59 | 228 | 0.9 | 0.9 | 0.00 | 0.00 | 0.00 | 77 | 1021.6 |
| 20260509162852 | 59 | 186 | 2.6 | 2.6 | 0.00 | 0.00 | 0.00 | 76 | 1021.5 |
| 20260509162350 | 58 | 198 | 0.9 | 1.7 | 0.00 | 0.00 | 0.00 | 78 | 1021.5 |
| 20260509161846 | 58 | 121 | 4.3 | 5.2 | 0.00 | 0.00 | 0.00 | 79 | 1021.6 |
| 20260509161342 | 58 | 192 | 1.7 | 1.7 | 0.00 | 0.00 | 0.00 | 78 | 1021.5 |
| 20260509160838 | 57 | 200 | 1.7 | 1.7 | 0.00 | 0.00 | 0.00 | 80 | 1021.7 |
| 20260509160334 | 57 | 167 | 2.6 | 4.3 | 0.00 | 0.00 | 0.00 | 79 | 1021.8 |
| 20260509155829 | 58 | 143 | 0.0 | 0.0 | 0.00 | 0.00 | 0.00 | 79 | 1022.0 |
| 20260509155326 | 57 | 117 | 3.5 | 4.3 | 0.00 | 0.00 | 0.00 | 80 | 1021.7 |
| 20260509154823 | 56 | 133 | 2.6 | 2.6 | 0.00 | 0.00 | 0.00 | 82 | 1021.9 |
| 20260509154319 | 56 | 149 | 1.7 | 2.6 | 0.00 | 0.00 | 0.00 | 82 | 1021.9 |
| 20260509153816 | 57 | 144 | 3.5 | 4.3 | 0.00 | 0.00 | 0.00 | 81 | 1021.9 |